Location: Avully
(45.9633°N, 6.0228°E)
Time: 03:28:06
(UTC+00:00)

CZ-2C R/B - Pass Details

Date: 23 May 2024
Orbit: 784 x 868 km, 98.3° (Epoch: 17 June)

Event Time Altitude Azimuth Distance (km) Brightness Sun altitude
Exits shadow 00:47:47 10° 130° (SE) 2,373 4.8 -21.3°
Reaches altitude 10° 00:47:52 10° 129° (SE) 2,339 4.8 -21.2°
Maximum altitude 00:52:28 34° 66° (ENE) 1,271 4.0 -21.0°
Drops below altitude 10° 00:57:07 10° 3° (N) 2,359 6.1 -20.7°
Sets 00:59:37 0° 354° (N) 3,299 6.9 -20.5°
